This demonstration page uses our WeatherBlox Daily Observations layout. Learn more.

Left ArrowRight Arrow

39.12711, -84.51439

Hourly Observations for October 11, 2016

Temp ( °F °C ) Dew Point ( °F °C ) Humidity (%) Winds ( mph kmh ) Pressure ( in mb ) Visibility ( mi km ) Precip ( " mm )
12:47 am 00:47 Clear with Mist and Fog 46 8 46 8 100 100 Calm 30.33 1027 2 3 0.00 0.00
12:53 am 00:53 Clear with Mist and Fog 48 8.9 48 8.9 100 100 Calm 30.33 1027 2 3 0.00 0.00
12:55 am 00:55 Clear with Mist and Fog 48 8.9 48 8.9 100 100 Calm 30.33 1027 3 5 0.00 0.00
1:53 am 01:53 Clear 48 8.9 48 8.9 100 100 Calm 30.32 1027 10 16 0.00 0.00
2:53 am 02:53 Clear 50 10 50 10 100 100 Calm 30.33 1027 10 16 0.00 0.00
3:44 am 03:44 Clear with Mist and Fog 48 9 48 9 100 100 Calm 30.33 1027 2 3 0.00 0.00
3:53 am 03:53 Clear with Mist and Fog 48 8.9 48 8.9 100 100 Calm 30.35 1028 1 1 0.00 0.00
4:00 am 04:00 Clear with Mist and Fog 46 8 46 8 100 100 E 3 6 30.33 1027 3 5 0.00 0.00
4:53 am 04:53 Clear 48 8.9 48 8.9 100 100 NNE 5 7 30.32 1027 10 16 0.00 0.00
5:53 am 05:53 Clear 49 9.4 49 9.4 100 100 NNW 5 7 30.33 1027 10 16 0.00 0.00
6:53 am 06:53 Clear 47 8.3 47 8.3 100 100 Calm 30.34 1027 7 11 0.00 0.00
7:53 am 07:53 Mostly Sunny 44 6.7 44 6.7 100 100 Calm 30.33 1027 7 11 0.00 0.00
8:53 am 08:53 Mostly Sunny 49 9.4 48 8.9 97 97 Calm 30.34 1028 10 16 0.00 0.00
9:53 am 09:53 Partly Cloudy 52 11.1 49 9.4 89 89 Calm 30.35 1028 10 16 0.00 0.00
10:53 am 10:53 Partly Cloudy 55 12.8 50 10 83 83 Calm 30.34 1027 10 16 0.00 0.00
11:53 am 11:53 Partly Cloudy 59 15 51 10.6 75 75 Calm 30.32 1027 10 16 0.00 0.00
12:53 pm 12:53 Mostly Sunny 63 17.2 51 10.6 65 65 SW 3 6 30.30 1026 10 16 0.00 0.00
1:53 pm 13:53 Mostly Sunny 67 19.4 52 11.1 59 59 S 7 11 30.27 1025 10 16 0.00 0.00
2:53 pm 14:53 Mostly Sunny 69 20.6 52 11.1 55 55 SE 5 7 30.24 1024 10 16 0.00 0.00
3:53 pm 15:53 Sunny 72 22.2 52 11.1 50 50 VRB 3 6 30.22 1023 10 16 0.00 0.00
4:53 pm 16:53 Sunny 73 22.8 52 11.1 48 48 VRB 3 6 30.20 1023 10 16 0.00 0.00
5:53 pm 17:53 Sunny 73 22.8 54 12.2 51 51 SSE 3 6 30.19 1023 10 16 0.00 0.00
6:53 pm 18:53 Sunny 63 17.2 58 14.4 84 84 Calm 30.19 1022 10 16 0.00 0.00
7:53 pm 19:53 Clear 58 14.4 55 12.8 90 90 Calm 30.20 1023 10 16 0.00 0.00
8:53 pm 20:53 Clear 55 12.8 54 12.2 96 96 Calm 30.20 1023 10 16 0.00 0.00
9:53 pm 21:53 Clear 54 12.2 54 12.2 100 100 Calm 30.20 1023 10 16 0.00 0.00
10:53 pm 22:53 Clear 52 11.1 52 11.1 100 100 Calm 30.21 1023 10 16 0.00 0.00
11:53 pm 23:53 Clear 51 10.6 51 10.6 100 100 Calm 30.21 1023 8 13 0.00 0.00

Powered by AerisWeather